Location: Mahannah Oil Field
(37.4664°N, 96.6003°W)
Time: 14:07:28
(UTC+00:00)

Vanguard 2 Rocket - Pass Details

Date: 22 January 2021
Orbit: 554 x 3325 km, 32.9° (Epoch: 06 March)

Event Time Altitude Azimuth Distance (km) Brightness Sun altitude
Rises 19:20:23 0° 210° (SSW) 7,159 12.5 32.2°
Reaches altitude 10° 19:26:41 10° 200° (SSW) 5,875 12.5 31.9°
Maximum altitude 19:39:33 27° 152° (SSE) 3,753 11.0 31.2°
Drops below altitude 10° 19:48:33 10° 101° (E) 4,059 10.2 30.7°
Sets 19:51:52 0° 89° (E) 4,670 10.3 30.5°
